Time,TemperatureF,DewpointF,PressureIn,WindDirection,WindDirectionDegrees,WindSpeedMPH,WindSpeedGustMPH,Humidity,HourlyPrecipIn,Conditions,Clouds,dailyrainin,SolarRadiationWatts/m^2,SoftwareType,DateUTC
2013-02-24 00:00:00,37.7,36.7,29.86,NNE,32,7.0,16.0,96,0.18,,---,0.50,0.00,VWS V14.01,2013-02-24 05:00:00,
2013-02-24 00:05:00,37.5,36.2,29.86,NE,53,6.0,12.0,95,0.18,,---,0.02,0.00,VWS V14.01,2013-02-24 05:05:00,
2013-02-24 00:10:00,37.6,36.3,29.86,NNE,27,5.0,14.0,95,0.22,,---,0.06,0.00,VWS V14.01,2013-02-24 05:10:00,
2013-02-24 00:15:00,37.7,36.7,29.85,NE,53,8.0,16.0,96,0.22,,---,0.06,0.00,VWS V14.01,2013-02-24 05:15:00,
2013-02-24 00:20:00,37.8,36.8,29.85,ENE,57,8.0,18.0,96,0.22,,---,0.08,0.00,VWS V14.01,2013-02-24 05:20:00,
2013-02-24 00:25:00,37.9,36.9,29.85,NNE,19,7.0,18.0,96,0.24,,---,0.10,0.00,VWS V14.01,2013-02-24 05:25:00,
2013-02-24 00:30:00,37.8,36.8,29.85,NNE,32,8.0,18.0,96,0.24,,---,0.10,0.00,VWS V14.01,2013-02-24 05:30:00,
2013-02-24 00:35:00,37.9,36.9,29.85,NNE,24,10.0,15.0,96,0.24,,---,0.14,0.00,VWS V14.01,2013-02-24 05:35:00,
2013-02-24 00:40:00,37.8,36.8,29.85,NE,36,9.0,15.0,96,0.26,,---,0.16,0.00,VWS V14.01,2013-02-24 05:40:00,
2013-02-24 00:45:00,37.9,36.9,29.84,NE,51,7.0,15.0,96,0.26,,---,0.16,0.00,VWS V14.01,2013-02-24 05:45:00,
2013-02-24 00:50:00,37.9,36.9,29.83,NE,46,11.0,16.0,96,0.24,,---,0.16,0.00,VWS V14.01,2013-02-24 05:50:00,
2013-02-24 00:55:00,37.8,36.8,29.83,NE,44,20.0,20.0,96,0.26,,---,0.18,0.00,VWS V14.01,2013-02-24 05:55:00,
2013-02-24 01:00:00,37.8,36.8,29.82,NNE,12,12.0,20.0,96,0.28,,---,0.20,0.00,VWS V14.01,2013-02-24 06:00:00,
2013-02-24 01:05:00,38.0,37.0,29.83,ENE,58,12.0,19.0,96,0.20,,---,0.20,0.00,VWS V14.01,2013-02-24 06:05:00,
2013-02-24 01:10:00,38.2,37.2,29.82,NNE,24,15.0,21.0,96,0.22,,---,0.22,0.00,VWS V14.01,2013-02-24 06:10:00,
2013-02-24 01:15:00,38.2,37.2,29.82,NNE,15,13.0,21.0,96,0.22,,---,0.22,0.00,VWS V14.01,2013-02-24 06:15:00,
2013-02-24 01:20:00,38.3,37.3,29.81,NNE,32,8.0,17.0,96,0.18,,---,0.24,0.00,VWS V14.01,2013-02-24 06:20:00,
2013-02-24 01:25:00,38.3,37.3,29.81,NE,49,12.0,17.0,96,0.20,,---,0.26,0.00,VWS V14.01,2013-02-24 06:25:00,
2013-02-24 01:30:00,38.2,37.2,29.81,NNE,21,10.0,17.0,96,0.20,,---,0.26,0.00,VWS V14.01,2013-02-24 06:30:00,
2013-02-24 01:35:00,37.9,36.9,29.81,NE,35,11.0,17.0,96,0.14,,---,0.26,0.00,VWS V14.01,2013-02-24 06:35:00,
2013-02-24 01:40:00,37.7,36.7,29.80,NE,41,9.0,17.0,96,0.14,,---,0.26,0.00,VWS V14.01,2013-02-24 06:40:00,
2013-02-24 01:45:00,37.7,36.7,29.80,NE,34,8.0,17.0,96,0.14,,---,0.26,0.00,VWS V14.01,2013-02-24 06:45:00,
2013-02-24 01:50:00,37.7,36.7,29.79,NNE,23,12.0,15.0,96,0.12,,---,0.28,0.00,VWS V14.01,2013-02-24 06:50:00,
2013-02-24 01:55:00,37.8,36.8,29.80,NNE,17,15.0,18.0,96,0.12,,---,0.28,0.00,VWS V14.01,2013-02-24 06:55:00,
2013-02-24 02:00:00,37.7,36.7,29.79,NE,53,5.0,18.0,96,0.14,,---,0.30,0.00,VWS V14.01,2013-02-24 07:00:00,
2013-02-24 02:05:00,38.1,37.1,29.78,NNE,31,14.0,19.0,96,0.12,,---,0.32,0.00,VWS V14.01,2013-02-24 07:05:00,
2013-02-24 02:10:00,38.0,37.0,29.78,North,5,9.0,19.0,96,0.12,,---,0.32,0.00,VWS V14.01,2013-02-24 07:10:00,
2013-02-24 02:15:00,37.9,36.9,29.77,North,9,10.0,19.0,96,0.14,,---,0.34,0.00,VWS V14.01,2013-02-24 07:15:00,
2013-02-24 02:20:00,37.9,36.9,29.77,NNE,12,11.0,16.0,96,0.14,,---,0.36,0.00,VWS V14.01,2013-02-24 07:20:00,
2013-02-24 02:25:00,37.9,36.9,29.77,NNE,32,9.0,18.0,96,0.16,,---,0.38,0.00,VWS V14.01,2013-02-24 07:25:00,
2013-02-24 02:30:00,37.8,36.8,29.76,NNE,26,14.0,19.0,96,0.18,,---,0.40,0.00,VWS V14.01,2013-02-24 07:30:00,
2013-02-24 02:35:00,37.8,36.8,29.75,NE,45,14.0,19.0,96,0.16,,---,0.42,0.00,VWS V14.01,2013-02-24 07:35:00,
2013-02-24 02:40:00,37.8,36.8,29.76,NNE,25,14.0,19.0,96,0.18,,---,0.44,0.00,VWS V14.01,2013-02-24 07:40:00,
2013-02-24 02:45:00,37.8,36.8,29.75,NNE,24,7.0,19.0,96,0.18,,---,0.44,0.00,VWS V14.01,2013-02-24 07:45:00,
2013-02-24 02:50:00,37.7,36.7,29.75,NNE,32,13.0,18.0,96,0.20,,---,0.46,0.00,VWS V14.01,2013-02-24 07:50:00,
2013-02-24 02:55:00,37.7,36.9,29.75,North,360,15.0,19.0,97,0.22,,---,0.48,0.00,VWS V14.01,2013-02-24 07:55:00,
2013-02-24 03:00:00,37.7,36.9,29.74,North,360,10.0,19.0,97,0.22,,---,0.48,0.00,VWS V14.01,2013-02-24 08:00:00,
2013-02-24 03:05:00,37.8,37.0,29.74,NE,49,13.0,17.0,97,0.20,,---,0.50,0.00,VWS V14.01,2013-02-24 08:05:00,
2013-02-24 03:10:00,37.9,37.1,29.74,NE,50,13.0,22.0,97,0.20,,---,0.50,0.00,VWS V14.01,2013-02-24 08:10:00,
2013-02-24 03:15:00,37.9,37.1,29.73,NNE,24,13.0,22.0,97,0.22,,---,0.52,0.00,VWS V14.01,2013-02-24 08:15:00,
2013-02-24 03:20:00,38.0,37.2,29.73,NNE,17,13.0,20.0,97,0.18,,---,0.52,0.00,VWS V14.01,2013-02-24 08:20:00,
2013-02-24 03:25:00,38.2,37.4,29.73,NNE,26,10.0,20.0,97,0.20,,---,0.54,0.00,VWS V14.01,2013-02-24 08:25:00,
2013-02-24 03:30:00,38.3,37.5,29.73,NE,36,17.0,20.0,97,0.22,,---,0.56,0.00,VWS V14.01,2013-02-24 08:30:00,
2013-02-24 03:35:00,38.2,37.4,29.72,NE,35,12.0,18.0,97,0.18,,---,0.58,0.00,VWS V14.01,2013-02-24 08:35:00,
2013-02-24 03:40:00,38.3,37.5,29.72,North,355,13.0,19.0,97,0.18,,---,0.58,0.00,VWS V14.01,2013-02-24 08:40:00,
2013-02-24 03:45:00,38.1,37.3,29.72,North,355,12.0,19.0,97,0.20,,---,0.60,0.00,VWS V14.01,2013-02-24 08:45:00,
2013-02-24 03:50:00,38.1,37.3,29.72,North,360,12.0,17.0,97,0.16,,---,0.62,0.00,VWS V14.01,2013-02-24 08:50:00,
2013-02-24 03:55:00,38.1,37.3,29.72,NE,46,13.0,17.0,97,0.18,,---,0.64,0.00,VWS V14.01,2013-02-24 08:55:00,
2013-02-24 04:00:00,38.3,37.5,29.72,NNW,337,15.0,18.0,97,0.18,,,0.64,0.00,VWS V14.01,2013-02-24 09:00:00,
2013-02-24 04:01:00,38.3,37.5,29.72,North,5,13.0,18.0,97,0.18,,---,0.64,0.00,VWS V14.01,2013-02-24 09:01:00,
2013-02-24 04:06:00,38.4,37.6,29.71,North,5,17.0,19.0,97,0.18,,---,0.66,0.00,VWS V14.01,2013-02-24 09:06:00,
2013-02-24 04:11:00,38.4,37.6,29.71,NE,38,12.0,19.0,97,0.18,,---,0.66,0.00,VWS V14.01,2013-02-24 09:11:00,
2013-02-24 04:15:00,38.6,37.8,29.71,NNE,19,14.0,19.0,97,0.20,,,0.68,0.00,VWS V14.01,2013-02-24 09:15:00,
2013-02-24 04:16:00,38.6,37.8,29.71,NE,37,12.0,19.0,97,0.20,,---,0.68,0.00,VWS V14.01,2013-02-24 09:16:00,
2013-02-24 04:21:00,38.5,37.7,29.71,North,9,16.0,18.0,97,0.16,,---,0.68,0.00,VWS V14.01,2013-02-24 09:21:00,
2013-02-24 04:26:00,38.6,37.8,29.71,NNE,27,11.0,21.0,97,0.16,,---,0.68,0.00,VWS V14.01,2013-02-24 09:26:00,
2013-02-24 04:30:00,38.7,37.9,29.71,NE,42,18.0,21.0,97,0.18,,,0.70,0.00,VWS V14.01,2013-02-24 09:30:00,
2013-02-24 04:31:00,38.6,37.8,29.71,NNE,26,11.0,21.0,97,0.18,,---,0.70,0.00,VWS V14.01,2013-02-24 09:31:00,
2013-02-24 04:36:00,38.7,37.9,29.71,NNE,18,12.0,18.0,97,0.14,,---,0.70,0.00,VWS V14.01,2013-02-24 09:36:00,
2013-02-24 04:41:00,38.7,37.9,29.70,NNE,28,12.0,19.0,97,0.16,,---,0.72,0.00,VWS V14.01,2013-02-24 09:41:00,
2013-02-24 04:45:00,38.8,38.0,29.70,NE,42,6.0,19.0,97,0.18,,,0.74,0.00,VWS V14.01,2013-02-24 09:45:00,
2013-02-24 04:46:00,38.8,38.0,29.70,NE,37,10.0,19.0,97,0.18,,---,0.74,0.00,VWS V14.01,2013-02-24 09:46:00,
2013-02-24 04:51:00,38.8,38.0,29.70,NNE,28,14.0,19.0,97,0.12,,---,0.74,0.00,VWS V14.01,2013-02-24 09:51:00,
2013-02-24 04:56:00,38.8,38.0,29.70,North,9,12.0,19.0,97,0.12,,---,0.74,0.00,VWS V14.01,2013-02-24 09:56:00,
2013-02-24 05:00:00,38.9,38.1,29.70,North,5,7.0,19.0,97,0.14,,,0.76,0.00,VWS V14.01,2013-02-24 10:00:00,
2013-02-24 05:01:00,38.8,38.0,29.70,North,5,9.0,19.0,97,0.14,,---,0.76,0.00,VWS V14.01,2013-02-24 10:01:00,
2013-02-24 05:06:00,38.7,37.9,29.70,NE,39,12.0,18.0,97,0.12,,---,0.76,0.00,VWS V14.01,2013-02-24 10:06:00,
2013-02-24 05:11:00,38.9,38.1,29.69,North,5,8.0,18.0,97,0.14,,---,0.78,0.00,VWS V14.01,2013-02-24 10:11:00,
2013-02-24 05:15:00,38.9,38.1,29.70,NNE,18,13.0,18.0,97,0.14,,,0.78,0.00,VWS V14.01,2013-02-24 10:15:00,
2013-02-24 05:16:00,38.9,38.1,29.70,NE,49,6.0,18.0,97,0.14,,---,0.78,0.00,VWS V14.01,2013-02-24 10:16:00,
2013-02-24 05:21:00,38.9,38.1,29.69,NNE,28,8.0,13.0,97,0.10,,---,0.78,0.00,VWS V14.01,2013-02-24 10:21:00,
2013-02-24 05:26:00,39.0,38.2,29.70,North,360,8.0,15.0,97,0.12,,---,0.80,0.00,VWS V14.01,2013-02-24 10:26:00,
2013-02-24 05:30:00,39.1,38.3,29.70,NNE,15,10.0,15.0,97,0.12,,,0.80,0.00,VWS V14.01,2013-02-24 10:30:00,
2013-02-24 05:31:00,39.1,38.3,29.70,NNW,338,6.0,15.0,97,0.12,,---,0.80,0.00,VWS V14.01,2013-02-24 10:31:00,
2013-02-24 05:36:00,39.2,38.4,29.71,North,360,7.0,13.0,97,0.12,,---,0.82,0.00,VWS V14.01,2013-02-24 10:36:00,
2013-02-24 05:41:00,39.4,38.6,29.71,North,355,8.0,14.0,97,0.12,,---,0.82,0.00,VWS V14.01,2013-02-24 10:41:00,
2013-02-24 05:45:00,39.6,38.8,29.71,NNE,22,3.0,14.0,97,0.12,,,0.82,0.00,VWS V14.01,2013-02-24 10:45:00,
2013-02-24 05:46:00,39.6,38.8,29.71,North,351,2.0,14.0,97,0.12,,---,0.82,0.00,VWS V14.01,2013-02-24 10:46:00,
2013-02-24 05:51:00,39.8,39.0,29.72,NNW,331,2.0,7.0,97,0.10,,---,0.84,0.00,VWS V14.01,2013-02-24 10:51:00,
2013-02-24 05:56:00,39.9,39.1,29.72,NW,326,5.0,7.0,97,0.12,,---,0.86,0.00,VWS V14.01,2013-02-24 10:56:00,
2013-02-24 06:00:00,40.0,39.2,29.72,NNW,340,6.0,8.0,97,0.14,,,0.88,0.00,VWS V14.01,2013-02-24 11:00:00,
2013-02-24 06:01:00,40.0,39.2,29.72,NNW,336,3.0,8.0,97,0.12,,---,0.86,0.00,VWS V14.01,2013-02-24 11:01:00,
2013-02-24 06:06:00,40.2,39.4,29.72,North,5,4.0,7.0,97,0.14,,---,0.90,0.00,VWS V14.01,2013-02-24 11:06:00,
2013-02-24 06:11:00,40.3,39.5,29.72,NNW,346,8.0,9.0,97,0.14,,---,0.90,0.00,VWS V14.01,2013-02-24 11:11:00,
2013-02-24 06:15:00,40.1,39.3,29.70,North,350,6.0,14.0,97,0.16,,,1.04,30.00,VWS V14.01,2013-02-24 11:15:00,
2013-02-24 06:16:00,40.4,39.6,29.73,NNW,337,4.0,10.0,97,0.18,,---,0.94,0.00,VWS V14.01,2013-02-24 11:16:00,
2013-02-24 06:21:00,40.4,39.6,29.72,North,5,4.0,8.0,97,0.18,,---,0.96,0.00,VWS V14.01,2013-02-24 11:21:00,
2013-02-24 06:26:00,40.3,39.5,29.72,NNW,346,5.0,9.0,97,0.20,,---,0.98,0.00,VWS V14.01,2013-02-24 11:26:00,
2013-02-24 06:30:00,40.3,39.5,29.71,NNE,19,6.0,10.0,97,0.20,,,0.98,0.00,VWS V14.01,2013-02-24 11:30:00,
2013-02-24 06:31:00,40.3,39.5,29.71,NNW,334,7.0,10.0,97,0.20,,---,0.98,0.00,VWS V14.01,2013-02-24 11:31:00,
2013-02-24 06:36:00,40.3,39.5,29.71,NNE,21,8.0,10.0,97,0.20,,---,1.00,0.00,VWS V14.01,2013-02-24 11:36:00,
2013-02-24 06:41:00,40.3,39.5,29.71,NNW,341,8.0,10.0,97,0.22,,---,1.02,0.00,VWS V14.01,2013-02-24 11:41:00,
2013-02-24 06:45:00,40.2,39.4,29.70,North,360,7.0,11.0,97,0.22,,,1.02,5.00,VWS V14.01,2013-02-24 11:45:00,
2013-02-24 06:46:00,40.2,39.4,29.70,North,5,6.0,11.0,97,0.22,,---,1.02,5.00,VWS V14.01,2013-02-24 11:46:00,
2013-02-24 06:51:00,40.1,39.3,29.69,North,355,9.0,12.0,97,0.20,,---,1.02,5.00,VWS V14.01,2013-02-24 11:51:00,
2013-02-24 06:56:00,40.2,39.4,29.69,NNE,26,12.0,14.0,97,0.20,,---,1.02,7.00,VWS V14.01,2013-02-24 11:56:00,
2013-02-24 07:00:00,40.2,39.4,29.69,North,355,11.0,16.0,97,0.20,,,1.02,9.00,VWS V14.01,2013-02-24 12:00:00,
2013-02-24 07:01:00,40.2,39.4,29.69,North,360,13.0,16.0,97,0.20,,---,1.02,9.00,VWS V14.01,2013-02-24 12:01:00,
2013-02-24 07:06:00,40.2,39.4,29.69,NNE,24,9.0,14.0,97,0.14,,---,1.02,21.00,VWS V14.01,2013-02-24 12:06:00,
2013-02-24 07:11:00,40.2,39.4,29.70,NNW,343,12.0,14.0,97,0.14,,---,1.02,26.00,VWS V14.01,2013-02-24 12:11:00,
2013-02-24 07:15:00,40.1,39.3,29.70,North,350,6.0,14.0,97,0.16,,,1.04,30.00,VWS V14.01,2013-02-24 12:15:00,
2013-02-24 07:16:00,40.1,39.3,29.70,North,355,8.0,14.0,97,0.16,,---,1.04,28.00,VWS V14.01,2013-02-24 12:16:00,
2013-02-24 07:21:00,40.2,39.4,29.70,North,351,9.0,15.0,97,0.10,,---,1.04,33.00,VWS V14.01,2013-02-24 12:21:00,
2013-02-24 07:26:00,40.3,39.5,29.70,NNW,335,11.0,16.0,97,0.10,,---,1.04,33.00,VWS V14.01,2013-02-24 12:26:00,
2013-02-24 07:30:00,40.4,39.6,29.70,NNE,28,7.0,16.0,97,0.10,,,1.04,35.00,VWS V14.01,2013-02-24 12:30:00,
2013-02-24 07:31:00,40.4,39.6,29.70,North,9,8.0,16.0,97,0.10,,---,1.04,35.00,VWS V14.01,2013-02-24 12:31:00,
2013-02-24 07:36:00,40.4,39.6,29.68,North,355,12.0,17.0,97,0.06,,---,1.04,39.00,VWS V14.01,2013-02-24 12:36:00,
2013-02-24 07:41:00,40.5,39.7,29.68,NNE,28,10.0,17.0,97,0.06,,---,1.04,42.00,VWS V14.01,2013-02-24 12:41:00,
2013-02-24 07:45:00,40.4,39.6,29.69,North,11,10.0,17.0,97,0.06,,,1.04,42.00,VWS V14.01,2013-02-24 12:45:00,
2013-02-24 07:46:00,40.4,39.6,29.69,NNE,20,8.0,10.0,97,0.02,,---,1.04,42.00,VWS V14.01,2013-02-24 12:46:00,
2013-02-24 07:51:00,40.4,39.6,29.69,North,11,10.0,16.0,97,0.02,,---,1.04,40.00,VWS V14.01,2013-02-24 12:51:00,
2013-02-24 07:56:00,40.4,39.6,29.68,North,10,12.0,16.0,97,0.02,,---,1.04,39.00,VWS V14.01,2013-02-24 12:56:00,
2013-02-24 08:00:00,40.6,39.8,29.68,NNE,24,10.0,16.0,97,0.02,,,1.04,44.00,VWS V14.01,2013-02-24 13:00:00,
2013-02-24 08:01:00,40.6,39.8,29.68,North,360,14.0,14.0,97,0.02,,---,1.04,44.00,VWS V14.01,2013-02-24 13:01:00,
2013-02-24 08:06:00,40.7,39.9,29.67,North,355,12.0,15.0,97,0.02,,---,1.04,46.00,VWS V14.01,2013-02-24 13:06:00,
2013-02-24 08:11:00,40.8,40.0,29.66,NNE,13,11.0,18.0,97,0.02,,---,1.04,58.00,VWS V14.01,2013-02-24 13:11:00,
2013-02-24 08:15:00,41.0,40.2,29.66,NNE,15,9.0,19.0,97,0.02,,,1.04,65.00,VWS V14.01,2013-02-24 13:15:00,
2013-02-24 08:16:00,41.0,40.2,29.66,NNE,16,9.0,9.0,97,0.00,,---,1.04,65.00,VWS V14.01,2013-02-24 13:16:00,
2013-02-24 08:21:00,40.9,40.1,29.66,North,5,7.0,19.0,97,0.00,,---,1.04,72.00,VWS V14.01,2013-02-24 13:21:00,
2013-02-24 08:26:00,40.8,40.0,29.65,North,355,16.0,20.0,97,0.00,,---,1.04,76.00,VWS V14.01,2013-02-24 13:26:00,
2013-02-24 08:30:00,40.9,40.1,29.64,NNE,14,14.0,20.0,97,0.00,,,1.04,83.00,VWS V14.01,2013-02-24 13:30:00,
2013-02-24 08:31:00,40.9,40.1,29.64,NE,36,9.0,14.0,97,0.00,,---,1.04,83.00,VWS V14.01,2013-02-24 13:31:00,
2013-02-24 08:36:00,41.1,40.3,29.65,NNW,342,9.0,21.0,97,0.00,,---,1.04,74.00,VWS V14.01,2013-02-24 13:36:00,
2013-02-24 08:41:00,41.1,40.3,29.66,NNE,12,9.0,21.0,97,0.00,,---,1.04,51.00,VWS V14.01,2013-02-24 13:41:00,
2013-02-24 08:45:00,41.2,40.4,29.66,NNE,26,8.0,21.0,97,0.00,,,1.04,47.00,VWS V14.01,2013-02-24 13:45:00,
2013-02-24 08:46:00,41.1,40.3,29.66,NNW,348,9.0,11.0,97,0.00,,---,1.04,47.00,VWS V14.01,2013-02-24 13:46:00,
2013-02-24 08:51:00,41.3,40.5,29.66,North,5,11.0,15.0,97,0.00,,---,1.04,51.00,VWS V14.01,2013-02-24 13:51:00,
2013-02-24 08:56:00,41.5,40.7,29.66,North,5,13.0,17.0,97,0.00,,---,1.04,54.00,VWS V14.01,2013-02-24 13:56:00,
2013-02-24 09:00:00,42.0,41.2,29.62,NNE,19,14.0,19.0,97,0.02,,,1.06,113.00,VWS V14.01,2013-02-24 14:00:00,
2013-02-24 09:01:00,41.6,40.8,29.66,NNE,18,11.0,11.0,97,0.02,,---,1.06,60.00,VWS V14.01,2013-02-24 14:01:00,
2013-02-24 09:06:00,41.6,40.8,29.65,NNE,14,17.0,18.0,97,0.02,,---,1.06,67.00,VWS V14.01,2013-02-24 14:06:00,
2013-02-24 09:11:00,41.6,40.8,29.64,NNE,13,10.0,18.0,97,0.02,,---,1.06,74.00,VWS V14.01,2013-02-24 14:11:00,
2013-02-24 09:15:00,41.5,40.7,29.64,NE,44,9.0,18.0,97,0.02,,,1.06,93.00,VWS V14.01,2013-02-24 14:15:00,
2013-02-24 09:16:00,41.6,40.8,29.64,North,350,9.0,13.0,97,0.02,,---,1.06,93.00,VWS V14.01,2013-02-24 14:16:00,
2013-02-24 09:21:00,41.5,40.7,29.64,NNE,30,9.0,18.0,97,0.02,,---,1.06,100.00,VWS V14.01,2013-02-24 14:21:00,
2013-02-24 09:26:00,41.6,40.8,29.65,North,5,13.0,18.0,97,0.02,,---,1.06,81.00,VWS V14.01,2013-02-24 14:26:00,
2013-02-24 09:30:00,41.6,40.8,29.64,North,5,9.0,21.0,97,0.02,,,1.06,83.00,VWS V14.01,2013-02-24 14:30:00,
2013-02-24 09:31:00,41.6,40.8,29.64,North,355,9.0,9.0,97,0.02,,---,1.06,83.00,VWS V14.01,2013-02-24 14:31:00,
2013-02-24 09:36:00,41.6,40.8,29.64,NE,39,14.0,16.0,97,0.02,,---,1.06,84.00,VWS V14.01,2013-02-24 14:36:00,
2013-02-24 09:41:00,41.7,40.9,29.64,North,360,8.0,18.0,97,0.02,,---,1.06,81.00,VWS V14.01,2013-02-24 14:41:00,
2013-02-24 09:45:00,41.9,41.1,29.64,NNW,346,12.0,18.0,97,0.02,,,1.06,77.00,VWS V14.01,2013-02-24 14:45:00,
2013-02-24 09:47:00,41.9,41.1,29.64,North,350,11.0,15.0,97,0.02,,---,1.06,81.00,VWS V14.01,2013-02-24 14:47:00,
2013-02-24 09:52:00,42.0,41.2,29.63,NNE,25,15.0,16.0,97,0.02,,---,1.06,81.00,VWS V14.01,2013-02-24 14:52:00,
2013-02-24 09:57:00,42.0,41.2,29.63,North,11,10.0,19.0,97,0.02,,---,1.06,107.00,VWS V14.01,2013-02-24 14:57:00,
2013-02-24 10:00:00,42.0,41.2,29.62,NNE,19,14.0,19.0,97,0.02,,,1.06,113.00,VWS V14.01,2013-02-24 15:00:00,
2013-02-24 10:02:00,42.0,41.2,29.62,NNE,28,7.0,14.0,97,0.00,,---,1.06,123.00,VWS V14.01,2013-02-24 15:02:00,
2013-02-24 10:07:00,42.1,41.3,29.62,NE,36,16.0,18.0,97,0.00,,---,1.06,93.00,VWS V14.01,2013-02-24 15:07:00,
2013-02-24 10:12:00,41.8,40.8,29.63,NNE,26,7.0,18.0,96,0.00,,---,1.06,91.00,VWS V14.01,2013-02-24 15:12:00,
2013-02-24 10:15:00,41.9,41.1,29.63,North,355,10.0,18.0,97,0.00,,,1.06,84.00,VWS V14.01,2013-02-24 15:15:00,
2013-02-24 10:17:00,41.9,41.1,29.64,NNW,327,7.0,10.0,97,0.00,,---,1.06,86.00,VWS V14.01,2013-02-24 15:17:00,
2013-02-24 10:22:00,42.0,41.2,29.64,NNW,332,4.0,11.0,97,0.00,,---,1.06,58.00,VWS V14.01,2013-02-24 15:22:00,
2013-02-24 10:27:00,42.1,41.3,29.64,NNE,14,7.0,13.0,97,0.00,,---,1.06,63.00,VWS V14.01,2013-02-24 15:27:00,
2013-02-24 10:30:00,42.1,41.3,29.63,NNW,348,11.0,13.0,97,0.00,,,1.06,100.00,VWS V14.01,2013-02-24 15:30:00,
2013-02-24 10:32:00,42.1,41.3,29.63,North,360,14.0,14.0,97,0.00,,---,1.06,107.00,VWS V14.01,2013-02-24 15:32:00,
2013-02-24 10:37:00,42.1,41.3,29.63,NNE,19,11.0,14.0,97,0.00,,---,1.06,125.00,VWS V14.01,2013-02-24 15:37:00,
2013-02-24 10:42:00,42.1,41.3,29.63,NW,323,14.0,15.0,97,0.02,,---,1.08,137.00,VWS V14.01,2013-02-24 15:42:00,
2013-02-24 10:45:00,41.8,41.0,29.63,NNW,334,11.0,16.0,97,0.10,,,1.16,141.00,VWS V14.01,2013-02-24 15:45:00,
2013-02-24 10:47:00,42.2,41.4,29.63,North,11,5.0,11.0,97,0.02,,---,1.08,148.00,VWS V14.01,2013-02-24 15:47:00,
2013-02-24 10:52:00,42.2,41.4,29.63,North,5,6.0,14.0,97,0.04,,---,1.10,121.00,VWS V14.01,2013-02-24 15:52:00,
2013-02-24 10:57:00,42.3,41.5,29.63,NNW,348,9.0,14.0,97,0.04,,---,1.10,121.00,VWS V14.01,2013-02-24 15:57:00,
2013-02-24 11:00:00,42.2,41.4,29.63,NNW,329,9.0,14.0,97,0.04,,,1.10,144.00,VWS V14.01,2013-02-24 16:00:00,
2013-02-24 11:02:00,42.1,41.3,29.63,North,355,5.0,11.0,97,0.04,,---,1.10,141.00,VWS V14.01,2013-02-24 16:02:00,
2013-02-24 11:07:00,42.1,41.3,29.62,NNW,334,6.0,12.0,97,0.06,,---,1.12,156.00,VWS V14.01,2013-02-24 16:07:00,
2013-02-24 11:12:00,42.0,41.2,29.62,NW,323,5.0,15.0,97,0.06,,---,1.12,179.00,VWS V14.01,2013-02-24 16:12:00,
2013-02-24 11:15:00,41.9,41.1,29.63,NE,39,5.0,15.0,97,0.08,,,1.14,158.00,VWS V14.01,2013-02-24 16:15:00,
2013-02-24 11:17:00,41.9,41.1,29.63,NNW,332,7.0,9.0,97,0.08,,---,1.14,156.00,VWS V14.01,2013-02-24 16:17:00,
2013-02-24 11:22:00,41.9,41.1,29.63,NNW,338,5.0,14.0,97,0.08,,---,1.14,151.00,VWS V14.01,2013-02-24 16:22:00,
2013-02-24 11:27:00,41.9,41.1,29.63,NNW,330,11.0,14.0,97,0.08,,---,1.14,142.00,VWS V14.01,2013-02-24 16:27:00,
2013-02-24 11:30:00,41.8,41.0,29.63,NNW,333,6.0,14.0,97,0.08,,,1.14,139.00,VWS V14.01,2013-02-24 16:30:00,
2013-02-24 11:32:00,41.9,41.1,29.63,NW,310,7.0,8.0,97,0.08,,---,1.14,137.00,VWS V14.01,2013-02-24 16:32:00,
2013-02-24 11:37:00,41.9,41.1,29.63,NW,326,10.0,14.0,97,0.10,,---,1.16,135.00,VWS V14.01,2013-02-24 16:37:00,
2013-02-24 11:42:00,41.9,41.1,29.63,WNW,299,6.0,14.0,97,0.10,,---,1.16,120.00,VWS V14.01,2013-02-24 16:42:00,
2013-02-24 11:45:00,40.6,39.5,29.63,NW,307,18.0,18.0,96,0.12,,,1.26,42.00,VWS V14.01,2013-02-24 16:45:00,
2013-02-24 11:47:00,41.8,41.0,29.63,North,360,8.0,12.0,97,0.08,,---,1.16,137.00,VWS V14.01,2013-02-24 16:47:00,
2013-02-24 11:52:00,41.8,40.8,29.63,NNW,336,9.0,15.0,96,0.08,,---,1.16,125.00,VWS V14.01,2013-02-24 16:52:00,
2013-02-24 11:57:00,41.8,40.8,29.63,North,360,6.0,15.0,96,0.10,,---,1.18,118.00,VWS V14.01,2013-02-24 16:57:00,
2013-02-24 12:00:00,41.7,40.7,29.63,NW,323,10.0,16.0,96,0.10,,,1.18,111.00,VWS V14.01,2013-02-24 17:00:00,
2013-02-24 12:02:00,41.7,40.7,29.63,NW,320,7.0,11.0,96,0.08,,---,1.18,109.00,VWS V14.01,2013-02-24 17:02:00,
2013-02-24 12:07:00,41.6,40.5,29.63,NNE,17,9.0,15.0,96,0.08,,---,1.18,104.00,VWS V14.01,2013-02-24 17:07:00,
2013-02-24 12:12:00,41.6,40.5,29.63,NNW,333,12.0,15.0,96,0.08,,---,1.18,113.00,VWS V14.01,2013-02-24 17:12:00,
2013-02-24 12:15:00,41.5,40.5,29.63,NNW,329,9.0,15.0,96,0.10,,,1.20,104.00,VWS V14.01,2013-02-24 17:15:00,
2013-02-24 12:17:00,41.5,40.5,29.63,WNW,298,6.0,9.0,96,0.06,,---,1.20,104.00,VWS V14.01,2013-02-24 17:17:00,
2013-02-24 12:22:00,41.4,40.3,29.63,NW,307,9.0,17.0,96,0.06,,---,1.20,83.00,VWS V14.01,2013-02-24 17:22:00,
2013-02-24 12:27:00,41.2,40.2,29.64,NW,304,17.0,17.0,96,0.08,,---,1.22,67.00,VWS V14.01,2013-02-24 17:27:00,
2013-02-24 12:30:00,41.1,40.0,29.63,NW,316,9.0,17.0,96,0.08,,,1.22,60.00,VWS V14.01,2013-02-24 17:30:00,
2013-02-24 12:32:00,41.0,40.0,29.63,NW,325,9.0,17.0,96,0.08,,---,1.22,63.00,VWS V14.01,2013-02-24 17:32:00,
2013-02-24 12:37:00,40.9,39.8,29.63,NNW,338,9.0,17.0,96,0.10,,---,1.24,54.00,VWS V14.01,2013-02-24 17:37:00,
2013-02-24 12:42:00,40.7,39.7,29.63,NW,321,18.0,18.0,96,0.10,,---,1.24,46.00,VWS V14.01,2013-02-24 17:42:00,
2013-02-24 12:45:00,40.6,39.5,29.63,NW,307,18.0,18.0,96,0.12,,,1.26,42.00,VWS V14.01,2013-02-24 17:45:00,
2013-02-24 12:47:00,40.6,39.5,29.63,NW,315,15.0,18.0,96,0.10,,---,1.26,42.00,VWS V14.01,2013-02-24 17:47:00,
2013-02-24 12:52:00,40.5,39.5,29.63,NW,314,8.0,18.0,96,0.10,,---,1.26,42.00,VWS V14.01,2013-02-24 17:52:00,
2013-02-24 12:57:00,40.0,38.7,29.63,NNW,346,10.0,18.0,95,0.12,,---,1.28,44.00,VWS V14.01,2013-02-24 17:57:00,
2013-02-24 13:00:00,39.5,38.2,29.63,NW,306,13.0,19.0,95,0.14,,,1.30,47.00,VWS V14.01,2013-02-24 18:00:00,
2013-02-24 13:02:00,39.4,38.1,29.63,NW,306,7.0,15.0,95,0.12,,---,1.30,47.00,VWS V14.01,2013-02-24 18:02:00,
2013-02-24 13:07:00,39.0,37.7,29.63,NW,314,6.0,15.0,95,0.12,,---,1.30,47.00,VWS V14.01,2013-02-24 18:07:00,
2013-02-24 13:12:00,38.7,37.4,29.63,NW,317,10.0,16.0,95,0.14,,---,1.32,42.00,VWS V14.01,2013-02-24 18:12:00,
2013-02-24 13:15:00,38.6,37.3,29.63,NW,305,6.0,16.0,95,0.16,,,1.34,40.00,VWS V14.01,2013-02-24 18:15:00,
2013-02-24 13:17:00,38.5,37.2,29.62,NW,312,11.0,15.0,95,0.16,,---,1.36,39.00,VWS V14.01,2013-02-24 18:17:00,
2013-02-24 13:22:00,38.4,37.4,29.62,NW,304,7.0,15.0,96,0.18,,---,1.38,33.00,VWS V14.01,2013-02-24 18:22:00,
2013-02-24 13:27:00,38.6,37.6,29.61,North,350,10.0,18.0,96,0.20,,---,1.40,37.00,VWS V14.01,2013-02-24 18:27:00,
2013-02-24 13:30:00,38.9,37.6,29.63,North,5,8.0,20.0,95,0.10,,,1.44,142.00,VWS V14.01,2013-02-24 18:30:00,
2013-02-24 13:32:00,38.4,37.1,29.61,NNE,13,7.0,13.0,95,0.22,,---,1.44,62.00,VWS V14.01,2013-02-24 18:32:00,
2013-02-24 13:37:00,38.1,36.8,29.62,WNW,288,10.0,20.0,95,0.22,,---,1.44,76.00,VWS V14.01,2013-02-24 18:37:00,
2013-02-24 13:42:00,38.0,36.7,29.62,NW,324,16.0,20.0,95,0.22,,---,1.44,60.00,VWS V14.01,2013-02-24 18:42:00,
2013-02-24 13:45:00,37.7,36.4,29.62,NW,305,11.0,20.0,95,0.22,,,1.44,54.00,VWS V14.01,2013-02-24 18:45:00,
2013-02-24 13:47:00,37.5,36.2,29.62,NNW,346,6.0,13.0,95,0.18,,---,1.44,58.00,VWS V14.01,2013-02-24 18:47:00,
2013-02-24 13:52:00,37.3,36.0,29.62,NW,314,7.0,14.0,95,0.18,,---,1.44,84.00,VWS V14.01,2013-02-24 18:52:00,
2013-02-24 13:57:00,37.3,36.0,29.62,NW,311,5.0,19.0,95,0.18,,---,1.44,95.00,VWS V14.01,2013-02-24 18:57:00,
2013-02-24 14:00:00,38.7,36.6,29.65,NNW,348,14.0,26.0,92,0.02,,,1.46,179.00,VWS V14.01,2013-02-24 19:00:00,
2013-02-24 14:02:00,37.4,36.4,29.62,NNW,343,6.0,14.0,96,0.14,,---,1.44,97.00,VWS V14.01,2013-02-24 19:02:00,
2013-02-24 14:07:00,37.5,36.5,29.62,NNW,336,14.0,15.0,96,0.14,,---,1.44,111.00,VWS V14.01,2013-02-24 19:07:00,
2013-02-24 14:12:00,37.7,36.7,29.62,NNW,331,11.0,15.0,96,0.14,,---,1.44,111.00,VWS V14.01,2013-02-24 19:12:00,
2013-02-24 14:15:00,37.8,36.8,29.62,NW,318,8.0,16.0,96,0.14,,,1.44,118.00,VWS V14.01,2013-02-24 19:15:00,
2013-02-24 14:17:00,38.0,37.0,29.62,NNW,329,9.0,16.0,96,0.10,,---,1.44,125.00,VWS V14.01,2013-02-24 19:17:00,
2013-02-24 14:22:00,38.4,37.4,29.63,North,355,10.0,16.0,96,0.10,,---,1.44,130.00,VWS V14.01,2013-02-24 19:22:00,
2013-02-24 14:27:00,38.8,37.5,29.63,NNW,344,12.0,20.0,95,0.10,,---,1.44,134.00,VWS V14.01,2013-02-24 19:27:00,
2013-02-24 14:30:00,37.0,34.9,29.67,North,355,10.0,21.0,92,0.02,,,1.46,83.00,VWS V14.01,2013-02-24 19:30:00,
2013-02-24 14:32:00,38.9,37.6,29.64,NNW,345,8.0,14.0,95,0.00,,---,1.44,149.00,VWS V14.01,2013-02-24 19:32:00,
2013-02-24 14:37:00,39.0,37.4,29.64,NNE,14,15.0,20.0,94,0.00,,---,1.44,213.00,VWS V14.01,2013-02-24 19:37:00,
2013-02-24 14:42:00,39.0,37.4,29.64,North,11,5.0,20.0,94,0.00,,---,1.44,197.00,VWS V14.01,2013-02-24 19:42:00,
2013-02-24 14:45:00,36.6,34.5,29.67,NNW,329,10.0,19.0,92,0.02,,,1.46,105.00,VWS V14.01,2013-02-24 19:45:00,
2013-02-24 14:47:00,38.9,37.0,29.64,NNW,340,10.0,20.0,93,0.00,,---,1.44,195.00,VWS V14.01,2013-02-24 19:47:00,
2013-02-24 14:52:00,38.8,36.7,29.65,NNE,14,18.0,26.0,92,0.02,,---,1.46,223.00,VWS V14.01,2013-02-24 19:52:00,
2013-02-24 14:57:00,38.8,36.7,29.65,North,360,16.0,26.0,92,0.02,,---,1.46,271.00,VWS V14.01,2013-02-24 19:57:00,
2013-02-24 15:00:00,38.7,36.6,29.65,NNW,348,14.0,26.0,92,0.02,,,1.46,179.00,VWS V14.01,2013-02-24 20:00:00,
2013-02-24 15:02:00,38.6,36.5,29.65,NNW,348,15.0,19.0,92,0.02,,---,1.46,158.00,VWS V14.01,2013-02-24 20:02:00,
2013-02-24 15:07:00,38.4,36.3,29.66,North,355,8.0,21.0,92,0.02,,---,1.46,142.00,VWS V14.01,2013-02-24 20:07:00,
2013-02-24 15:12:00,38.2,36.1,29.66,NW,326,14.0,21.0,92,0.02,,---,1.46,148.00,VWS V14.01,2013-02-24 20:12:00,
2013-02-24 15:15:00,38.0,35.9,29.66,NNW,332,9.0,21.0,92,0.02,,,1.46,135.00,VWS V14.01,2013-02-24 20:15:00,
2013-02-24 15:17:00,37.9,35.8,29.66,NNE,17,12.0,20.0,92,0.02,,---,1.46,127.00,VWS V14.01,2013-02-24 20:17:00,
2013-02-24 15:22:00,37.5,35.4,29.66,North,355,7.0,21.0,92,0.02,,---,1.46,107.00,VWS V14.01,2013-02-24 20:22:00,
2013-02-24 15:27:00,37.1,35.0,29.67,NNW,346,16.0,21.0,92,0.02,,---,1.46,88.00,VWS V14.01,2013-02-24 20:27:00,
2013-02-24 15:30:00,37.0,34.9,29.67,North,355,10.0,21.0,92,0.02,,,1.46,83.00,VWS V14.01,2013-02-24 20:30:00,
2013-02-24 15:33:00,37.0,34.9,29.67,NNW,336,11.0,18.0,92,0.02,,---,1.46,84.00,VWS V14.01,2013-02-24 20:33:00,
2013-02-24 15:38:00,36.8,34.7,29.67,NW,324,7.0,19.0,92,0.02,,---,1.46,86.00,VWS V14.01,2013-02-24 20:38:00,
2013-02-24 15:43:00,36.7,34.6,29.67,NW,318,13.0,19.0,92,0.02,,---,1.46,88.00,VWS V14.01,2013-02-24 20:43:00,
2013-02-24 15:45:00,35.7,33.9,29.69,NW,324,7.0,17.0,93,0.00,,,1.46,58.00,VWS V14.01,2013-02-24 20:45:00,
2013-02-24 15:48:00,36.6,34.5,29.67,NNW,333,17.0,17.0,92,0.02,,---,1.46,100.00,VWS V14.01,2013-02-24 20:48:00,
2013-02-24 15:53:00,36.5,34.4,29.67,NNW,343,19.0,21.0,92,0.02,,---,1.46,118.00,VWS V14.01,2013-02-24 20:53:00,
2013-02-24 15:58:00,36.5,34.4,29.67,NNW,342,13.0,21.0,92,0.02,,---,1.46,113.00,VWS V14.01,2013-02-24 20:58:00,
2013-02-24 16:00:00,36.4,34.3,29.67,North,349,6.0,21.0,92,0.02,,,1.46,127.00,VWS V14.01,2013-02-24 21:00:00,
2013-02-24 16:03:00,36.4,34.3,29.67,WNW,303,11.0,17.0,92,0.00,,---,1.46,121.00,VWS V14.01,2013-02-24 21:03:00,
2013-02-24 16:08:00,36.4,34.3,29.68,NNW,327,6.0,21.0,92,0.00,,---,1.46,111.00,VWS V14.01,2013-02-24 21:08:00,
2013-02-24 16:13:00,36.4,34.3,29.68,NNW,331,14.0,21.0,92,0.00,,---,1.46,116.00,VWS V14.01,2013-02-24 21:13:00,
2013-02-24 16:15:00,35.8,34.0,29.71,WNW,300,10.0,19.0,93,0.00,,,1.46,7.00,VWS V14.01,2013-02-24 21:15:00,
2013-02-24 16:18:00,36.4,34.3,29.68,NW,318,10.0,18.0,92,0.00,,---,1.46,95.00,VWS V14.01,2013-02-24 21:18:00,
2013-02-24 16:23:00,36.3,34.2,29.68,NNW,338,10.0,18.0,92,0.00,,---,1.46,91.00,VWS V14.01,2013-02-24 21:23:00,
2013-02-24 16:28:00,36.1,34.0,29.68,NNW,337,4.0,18.0,92,0.00,,---,1.46,79.00,VWS V14.01,2013-02-24 21:28:00,
2013-02-24 16:30:00,35.7,33.9,29.72,NNW,341,7.0,16.0,93,0.00,,,1.46,0.00,VWS V14.01,2013-02-24 21:30:00,
2013-02-24 16:33:00,36.0,34.2,29.69,NNW,327,9.0,12.0,93,0.00,,---,1.46,77.00,VWS V14.01,2013-02-24 21:33:00,
2013-02-24 16:38:00,35.8,34.0,29.69,NW,324,9.0,12.0,93,0.00,,---,1.46,69.00,VWS V14.01,2013-02-24 21:38:00,
2013-02-24 16:43:00,35.7,33.9,29.69,North,355,5.0,17.0,93,0.00,,---,1.46,65.00,VWS V14.01,2013-02-24 21:43:00,
2013-02-24 16:45:00,35.7,33.9,29.69,NW,324,7.0,17.0,93,0.00,,,1.46,58.00,VWS V14.01,2013-02-24 21:45:00,
2013-02-24 16:48:00,35.8,34.0,29.69,NW,311,10.0,14.0,93,0.00,,---,1.46,54.00,VWS V14.01,2013-02-24 21:48:00,
2013-02-24 16:53:00,35.8,34.2,29.69,North,351,6.0,17.0,94,0.00,,---,1.46,56.00,VWS V14.01,2013-02-24 21:53:00,
2013-02-24 16:58:00,35.8,34.0,29.70,NW,316,9.0,17.0,93,0.00,,---,1.46,49.00,VWS V14.01,2013-02-24 21:58:00,
2013-02-24 17:00:00,35.8,34.0,29.70,NW,321,15.0,17.0,93,0.00,,,1.46,37.00,VWS V14.01,2013-02-24 22:00:00,
2013-02-24 17:03:00,35.8,34.0,29.69,NW,317,9.0,16.0,93,0.00,,---,1.46,30.00,VWS V14.01,2013-02-24 22:03:00,
2013-02-24 17:08:00,35.8,34.0,29.70,North,5,5.0,19.0,93,0.00,,---,1.46,16.00,VWS V14.01,2013-02-24 22:08:00,
2013-02-24 17:13:00,35.8,34.0,29.70,NNW,342,7.0,19.0,93,0.00,,---,1.46,9.00,VWS V14.01,2013-02-24 22:13:00,
2013-02-24 17:15:00,35.8,34.0,29.71,WNW,300,10.0,19.0,93,0.00,,,1.46,7.00,VWS V14.01,2013-02-24 22:15:00,
2013-02-24 17:18:00,35.8,34.0,29.71,NNW,327,10.0,15.0,93,0.00,,---,1.46,5.00,VWS V14.01,2013-02-24 22:18:00,
2013-02-24 17:23:00,35.8,34.0,29.71,NNW,334,8.0,15.0,93,0.00,,---,1.46,0.00,VWS V14.01,2013-02-24 22:23:00,
2013-02-24 17:28:00,35.7,33.9,29.72,NW,321,6.0,16.0,93,0.00,,---,1.46,0.00,VWS V14.01,2013-02-24 22:28:00,
2013-02-24 17:30:00,35.7,33.9,29.72,NNW,341,7.0,16.0,93,0.00,,,1.46,0.00,VWS V14.01,2013-02-24 22:30:00,
2013-02-24 17:33:00,35.7,33.9,29.72,NNW,331,9.0,12.0,93,0.00,,---,1.46,0.00,VWS V14.01,2013-02-24 22:33:00,
2013-02-24 17:38:00,35.7,33.9,29.72,North,355,5.0,17.0,93,0.00,,---,1.46,0.00,VWS V14.01,2013-02-24 22:38:00,
2013-02-24 17:43:00,35.6,33.8,29.72,NNE,22,4.0,17.0,93,0.00,,---,1.46,0.00,VWS V14.01,2013-02-24 22:43:00,
2013-02-24 17:45:00,35.6,33.8,29.72,NNW,345,7.0,17.0,93,0.00,,,1.46,0.00,VWS V14.01,2013-02-24 22:45:00,
2013-02-24 17:48:00,35.6,33.8,29.72,NW,309,9.0,14.0,93,0.00,,---,1.46,0.00,VWS V14.01,2013-02-24 22:48:00,
2013-02-24 17:53:00,35.5,33.7,29.73,NNW,329,9.0,16.0,93,0.00,,---,1.46,0.00,VWS V14.01,2013-02-24 22:53:00,
2013-02-24 17:58:00,35.4,33.8,29.73,NNE,13,8.0,16.0,94,0.00,,---,1.46,0.00,VWS V14.01,2013-02-24 22:58:00,
2013-02-24 18:00:00,35.3,33.8,29.73,NW,319,10.0,16.0,94,0.00,,,1.46,0.00,VWS V14.01,2013-02-24 23:00:00,
2013-02-24 18:03:00,35.3,33.8,29.74,North,350,13.0,13.0,94,0.00,,---,1.46,0.00,VWS V14.01,2013-02-24 23:03:00,
2013-02-24 18:08:00,35.2,33.7,29.74,North,355,8.0,13.0,94,0.00,,---,1.46,0.00,VWS V14.01,2013-02-24 23:08:00,
2013-02-24 18:13:00,35.1,33.5,29.75,NW,326,8.0,13.0,94,0.00,,---,1.46,0.00,VWS V14.01,2013-02-24 23:13:00,
2013-02-24 18:15:00,35.0,33.5,29.75,NNW,329,10.0,13.0,94,0.00,,,1.46,0.00,VWS V14.01,2013-02-24 23:15:00,
2013-02-24 18:18:00,35.0,33.5,29.75,North,5,5.0,10.0,94,0.00,,---,1.46,0.00,VWS V14.01,2013-02-24 23:18:00,
2013-02-24 18:23:00,35.0,33.7,29.75,NW,322,6.0,13.0,95,0.00,,---,1.46,0.00,VWS V14.01,2013-02-24 23:23:00,
2013-02-24 18:28:00,34.9,33.6,29.75,North,350,10.0,13.0,95,0.00,,---,1.46,0.00,VWS V14.01,2013-02-24 23:28:00,
2013-02-24 18:30:00,34.8,33.5,29.76,North,355,4.0,13.0,95,0.00,,,1.46,0.00,VWS V14.01,2013-02-24 23:30:00,
2013-02-24 18:33:00,34.8,33.5,29.75,NNW,348,7.0,8.0,95,0.00,,---,1.46,0.00,VWS V14.01,2013-02-24 23:33:00,
2013-02-24 18:38:00,34.7,33.4,29.75,NW,311,3.0,13.0,95,0.00,,---,1.46,0.00,VWS V14.01,2013-02-24 23:38:00,
2013-02-24 18:43:00,34.6,33.3,29.75,North,11,9.0,13.0,95,0.00,,---,1.46,0.00,VWS V14.01,2013-02-24 23:43:00,
2013-02-24 18:45:00,34.1,32.8,29.80,NW,315,8.0,12.0,95,0.00,,,1.46,0.00,VWS V14.01,2013-02-24 23:45:00,
2013-02-24 18:48:00,34.6,33.3,29.76,NW,313,3.0,10.0,95,0.00,,---,1.46,0.00,VWS V14.01,2013-02-24 23:48:00,
2013-02-24 18:53:00,34.5,33.2,29.76,NNW,335,14.0,14.0,95,0.00,,---,1.46,0.00,VWS V14.01,2013-02-24 23:53:00,
2013-02-24 18:58:00,34.5,33.2,29.76,North,355,12.0,14.0,95,0.00,,---,1.46,0.00,VWS V14.01,2013-02-24 23:58:00,
2013-02-24 19:00:00,34.5,33.2,29.77,North,350,6.0,14.0,95,0.00,,,1.46,0.00,VWS V14.01,2013-02-25 00:00:00,
2013-02-24 19:03:00,34.4,33.1,29.77,NNW,332,6.0,8.0,95,0.00,,---,1.46,0.00,VWS V14.01,2013-02-25 00:03:00,
2013-02-24 19:08:00,34.4,33.1,29.77,NW,324,15.0,15.0,95,0.00,,---,1.46,0.00,VWS V14.01,2013-02-25 00:08:00,
2013-02-24 19:13:00,34.4,33.1,29.77,NW,311,5.0,15.0,95,0.00,,---,1.46,0.00,VWS V14.01,2013-02-25 00:13:00,
2013-02-24 19:15:00,34.4,33.1,29.77,NW,319,7.0,15.0,95,0.00,,,1.46,0.00,VWS V14.01,2013-02-25 00:15:00,
2013-02-24 19:18:00,34.4,33.1,29.78,North,350,8.0,11.0,95,0.00,,---,1.46,0.00,VWS V14.01,2013-02-25 00:18:00,
2013-02-24 19:23:00,34.4,33.1,29.78,NW,323,5.0,12.0,95,0.00,,---,1.46,0.00,VWS V14.01,2013-02-25 00:23:00,
2013-02-24 19:28:00,34.3,33.0,29.79,NW,320,8.0,12.0,95,0.00,,---,1.46,0.00,VWS V14.01,2013-02-25 00:28:00,
2013-02-24 19:30:00,34.3,33.0,29.79,NNW,336,8.0,12.0,95,0.00,,,1.46,0.00,VWS V14.01,2013-02-25 00:30:00,
2013-02-24 19:33:00,34.3,33.0,29.79,NW,319,4.0,8.0,95,0.00,,---,1.46,0.00,VWS V14.01,2013-02-25 00:33:00,
2013-02-24 19:38:00,34.2,32.9,29.80,NW,312,7.0,11.0,95,0.00,,---,1.46,0.00,VWS V14.01,2013-02-25 00:38:00,
2013-02-24 19:43:00,34.2,32.9,29.80,North,355,4.0,11.0,95,0.00,,---,1.46,0.00,VWS V14.01,2013-02-25 00:43:00,
2013-02-24 19:45:00,33.5,32.2,29.82,NW,319,7.0,12.0,95,0.00,,,1.46,0.00,VWS V14.01,2013-02-25 00:45:00,
2013-02-24 19:48:00,34.1,32.8,29.80,North,351,7.0,13.0,95,0.00,,---,1.46,0.00,VWS V14.01,2013-02-25 00:48:00,
2013-02-24 19:53:00,34.1,32.8,29.80,NW,324,8.0,14.0,95,0.00,,---,1.46,0.00,VWS V14.01,2013-02-25 00:53:00,
2013-02-24 19:58:00,34.1,32.8,29.80,NW,308,8.0,14.0,95,0.00,,---,1.46,0.00,VWS V14.01,2013-02-25 00:58:00,
2013-02-24 20:00:00,34.0,32.7,29.81,NW,323,7.0,14.0,95,0.00,,,1.46,0.00,VWS V14.01,2013-02-25 01:00:00,
2013-02-24 20:03:00,34.0,32.7,29.80,WNW,303,7.0,13.0,95,0.00,,---,1.46,0.00,VWS V14.01,2013-02-25 01:03:00,
2013-02-24 20:08:00,34.0,32.7,29.81,NW,323,6.0,13.0,95,0.00,,---,1.46,0.00,VWS V14.01,2013-02-25 01:08:00,
2013-02-24 20:13:00,34.0,32.7,29.81,NW,315,5.0,13.0,95,0.00,,---,1.46,0.00,VWS V14.01,2013-02-25 01:13:00,
2013-02-24 20:15:00,33.0,31.5,29.83,WNW,287,11.0,15.0,94,0.00,,,1.46,0.00,VWS V14.01,2013-02-25 01:15:00,
2013-02-24 20:18:00,33.9,32.6,29.81,NW,310,8.0,11.0,95,0.00,,---,1.46,0.00,VWS V14.01,2013-02-25 01:18:00,
2013-02-24 20:23:00,33.9,32.6,29.81,NW,317,9.0,11.0,95,0.00,,---,1.46,0.00,VWS V14.01,2013-02-25 01:23:00,
2013-02-24 20:28:00,33.8,32.5,29.81,NW,315,7.0,11.0,95,0.00,,---,1.46,0.00,VWS V14.01,2013-02-25 01:28:00,
2013-02-24 20:30:00,33.8,32.5,29.82,NW,321,9.0,12.0,95,0.00,,,1.46,0.00,VWS V14.01,2013-02-25 01:30:00,
2013-02-24 20:33:00,33.8,32.5,29.82,WNW,302,5.0,9.0,95,0.00,,---,1.46,0.00,VWS V14.01,2013-02-25 01:33:00,
2013-02-24 20:38:00,33.7,32.4,29.82,NW,311,10.0,12.0,95,0.00,,---,1.46,0.00,VWS V14.01,2013-02-25 01:38:00,
2013-02-24 20:43:00,33.5,32.2,29.82,NW,311,9.0,12.0,95,0.00,,---,1.46,0.00,VWS V14.01,2013-02-25 01:43:00,
2013-02-24 20:45:00,33.5,32.2,29.82,NW,319,7.0,12.0,95,0.00,,,1.46,0.00,VWS V14.01,2013-02-25 01:45:00,
2013-02-24 20:48:00,33.5,32.2,29.83,NNW,331,8.0,12.0,95,0.00,,---,1.46,0.00,VWS V14.01,2013-02-25 01:48:00,
2013-02-24 20:53:00,33.4,32.1,29.83,NNW,331,5.0,12.0,95,0.00,,---,1.46,0.00,VWS V14.01,2013-02-25 01:53:00,
2013-02-24 20:58:00,33.2,31.9,29.83,NW,309,11.0,13.0,95,0.00,,---,1.46,0.00,VWS V14.01,2013-02-25 01:58:00,
2013-02-24 21:00:00,33.2,31.9,29.83,NNW,331,7.0,13.0,95,0.00,,,1.46,0.00,VWS V14.01,2013-02-25 02:00:00,
2013-02-24 21:03:00,33.2,31.9,29.83,NW,326,8.0,13.0,95,0.00,,---,1.46,0.00,VWS V14.01,2013-02-25 02:03:00,
2013-02-24 21:08:00,33.1,31.8,29.83,WNW,298,10.0,14.0,95,0.00,,---,1.46,0.00,VWS V14.01,2013-02-25 02:08:00,
2013-02-24 21:13:00,33.0,31.5,29.83,NW,324,11.0,15.0,94,0.00,,---,1.46,0.00,VWS V14.01,2013-02-25 02:13:00,
2013-02-24 21:15:00,33.0,31.5,29.83,WNW,287,11.0,15.0,94,0.00,,,1.46,0.00,VWS V14.01,2013-02-25 02:15:00,
2013-02-24 21:18:00,33.0,31.5,29.83,WNW,282,8.0,14.0,94,0.00,,---,1.46,0.00,VWS V14.01,2013-02-25 02:18:00,
2013-02-24 21:23:00,32.9,31.4,29.83,NNW,333,8.0,14.0,94,0.00,,---,1.46,0.00,VWS V14.01,2013-02-25 02:23:00,
2013-02-24 21:28:00,32.8,31.3,29.83,NW,305,6.0,14.0,94,0.00,,---,1.46,0.00,VWS V14.01,2013-02-25 02:28:00,
2013-02-24 21:30:00,32.8,31.3,29.84,NW,306,7.0,14.0,94,0.00,,,1.46,0.00,VWS V14.01,2013-02-25 02:30:00,
2013-02-24 21:33:00,32.7,31.2,29.84,NW,321,4.0,17.0,94,0.00,,---,1.46,0.00,VWS V14.01,2013-02-25 02:33:00,
2013-02-24 21:38:00,32.7,31.2,29.84,NNW,327,9.0,17.0,94,0.00,,---,1.46,0.00,VWS V14.01,2013-02-25 02:38:00,
2013-02-24 21:43:00,32.6,31.3,29.84,NW,305,11.0,17.0,95,0.00,,---,1.46,0.00,VWS V14.01,2013-02-25 02:43:00,
2013-02-24 21:45:00,31.9,30.9,29.86,NW,319,6.0,14.0,96,0.00,,,1.46,0.00,VWS V14.01,2013-02-25 02:45:00,
2013-02-24 21:48:00,32.6,31.3,29.85,NW,326,10.0,11.0,95,0.00,,---,1.46,0.00,VWS V14.01,2013-02-25 02:48:00,
2013-02-24 21:53:00,32.6,31.3,29.85,NW,304,7.0,15.0,95,0.00,,---,1.46,0.00,VWS V14.01,2013-02-25 02:53:00,
2013-02-24 21:58:00,32.5,31.2,29.85,NW,313,10.0,15.0,95,0.00,,---,1.46,0.00,VWS V14.01,2013-02-25 02:58:00,
2013-02-24 22:00:00,32.4,31.1,29.85,NW,324,12.0,15.0,95,0.00,,,1.46,0.00,VWS V14.01,2013-02-25 03:00:00,
2013-02-24 22:03:00,32.4,31.1,29.85,NW,311,7.0,13.0,95,0.00,,---,1.46,0.00,VWS V14.01,2013-02-25 03:03:00,
2013-02-24 22:08:00,32.4,31.1,29.85,WNW,282,11.0,14.0,95,0.00,,---,1.46,0.00,VWS V14.01,2013-02-25 03:08:00,
2013-02-24 22:13:00,32.3,31.0,29.85,NW,312,12.0,16.0,95,0.00,,---,1.46,0.00,VWS V14.01,2013-02-25 03:13:00,
2013-02-24 22:15:00,32.2,30.9,29.85,NNW,336,6.0,16.0,95,0.00,,,1.46,0.00,VWS V14.01,2013-02-25 03:15:00,
2013-02-24 22:18:00,32.2,30.9,29.86,WNW,286,6.0,12.0,95,0.00,,---,1.46,0.00,VWS V14.01,2013-02-25 03:18:00,
2013-02-24 22:23:00,32.1,30.8,29.86,NW,304,8.0,16.0,95,0.00,,---,1.46,0.00,VWS V14.01,2013-02-25 03:23:00,
2013-02-24 22:28:00,32.1,30.8,29.86,NW,318,13.0,16.0,95,0.00,,---,1.46,0.00,VWS V14.01,2013-02-25 03:28:00,
2013-02-24 22:30:00,32.1,31.1,29.86,NW,325,9.0,16.0,96,0.00,,,1.46,0.00,VWS V14.01,2013-02-25 03:30:00,
2013-02-24 22:33:00,32.0,31.0,29.86,NW,317,7.0,13.0,96,0.00,,---,1.46,0.00,VWS V14.01,2013-02-25 03:33:00,
2013-02-24 22:38:00,32.0,31.0,29.86,NNW,340,9.0,14.0,96,0.00,,---,1.46,0.00,VWS V14.01,2013-02-25 03:38:00,
2013-02-24 22:43:00,32.0,31.0,29.86,NW,314,9.0,14.0,96,0.00,,---,1.46,0.00,VWS V14.01,2013-02-25 03:43:00,
2013-02-24 22:45:00,31.9,30.9,29.86,NW,319,6.0,14.0,96,0.00,,,1.46,0.00,VWS V14.01,2013-02-25 03:45:00,
2013-02-24 22:48:00,31.9,30.9,29.86,NNW,346,13.0,14.0,96,0.00,,---,1.46,0.00,VWS V14.01,2013-02-25 03:48:00,
2013-02-24 22:53:00,31.9,30.9,29.86,NW,315,10.0,14.0,96,0.00,,---,1.46,0.00,VWS V14.01,2013-02-25 03:53:00,
2013-02-24 22:58:00,31.8,30.8,29.87,NNW,328,5.0,14.0,96,0.00,,---,1.46,0.00,VWS V14.01,2013-02-25 03:58:00,
2013-02-24 23:00:00,31.8,30.8,29.87,NNW,343,5.0,14.0,96,0.00,,,1.46,0.00,VWS V14.01,2013-02-25 04:00:00,
2013-02-24 23:03:00,31.8,30.8,29.87,WNW,298,6.0,11.0,96,0.00,,---,1.46,0.00,VWS V14.01,2013-02-25 04:03:00,
2013-02-24 23:08:00,31.8,30.8,29.87,NW,325,9.0,12.0,96,0.00,,---,1.46,0.00,VWS V14.01,2013-02-25 04:08:00,
2013-02-24 23:13:00,31.7,30.7,29.87,NW,323,8.0,12.0,96,0.00,,---,1.46,0.00,VWS V14.01,2013-02-25 04:13:00,
2013-02-24 23:15:00,31.7,30.7,29.87,NNW,347,4.0,12.0,96,0.00,,,1.46,0.00,VWS V14.01,2013-02-25 04:15:00,
2013-02-24 23:18:00,31.7,30.7,29.87,NW,319,9.0,11.0,96,0.00,,---,1.46,0.00,VWS V14.01,2013-02-25 04:18:00,
2013-02-24 23:23:00,31.7,30.7,29.87,NNW,332,6.0,11.0,96,0.00,,---,1.46,0.00,VWS V14.01,2013-02-25 04:23:00,
2013-02-24 23:28:00,31.7,30.7,29.87,NNW,329,7.0,11.0,96,0.00,,---,1.46,0.00,VWS V14.01,2013-02-25 04:28:00,
2013-02-24 23:30:00,31.7,30.7,29.87,NW,315,7.0,11.0,96,0.00,,,1.46,0.00,VWS V14.01,2013-02-25 04:30:00,
2013-02-24 23:33:00,31.7,30.7,29.88,NW,326,2.0,9.0,96,0.00,,---,1.46,0.00,VWS V14.01,2013-02-25 04:33:00,
2013-02-24 23:38:00,31.7,30.7,29.88,NW,321,7.0,11.0,96,0.00,,---,1.46,0.00,VWS V14.01,2013-02-25 04:38:00,
2013-02-24 23:43:00,31.6,30.6,29.88,NW,323,7.0,11.0,96,0.00,,---,1.46,0.00,VWS V14.01,2013-02-25 04:43:00,
2013-02-24 23:45:00,31.6,30.6,29.88,NNW,330,3.0,11.0,96,0.00,,,1.46,0.00,VWS V14.01,2013-02-25 04:45:00,
2013-02-24 23:49:00,31.6,30.6,29.88,NW,304,9.0,11.0,96,0.00,,---,1.46,0.00,VWS V14.01,2013-02-25 04:49:00,
2013-02-24 23:54:00,31.6,30.6,29.88,NW,315,9.0,11.0,96,0.00,,---,1.46,0.00,VWS V14.01,2013-02-25 04:54:00,
2013-02-24 23:59:00,31.6,30.6,29.89,NNW,333,9.0,12.0,96,0.00,,---,1.46,0.00,VWS V14.01,2013-02-25 04:59:00,